Location: Beneden-Haastrecht
(52.0012°N, 4.7557°E)
Time: 02:52:40
(UTC+00:00)

Ariane Rocket - Pass Details

Date: 24 October 2020
Orbit: 759 x 771 km, 98.7° (Epoch: 27 November)

Event Time Altitude Azimuth Distance (km) Brightness Sun altitude
Exits shadow 17:38:37 15° 77° (ENE) 1,967 4.5 -11.6°
Maximum altitude 17:40:19 18° 53° (NE) 1,831 4.5 -11.8°
Drops below altitude 10° 17:43:40 10° 12° (NNE) 2,327 5.3 -12.3°
Sets 17:46:39 0° 354° (N) 3,257 6.3 -12.8°
